Cloud_Cover
29 43 58 94 14 5 67 28 2 2 5 5 5 5 2 0 5 5 5 8 5 5 10 4 2 4 2 0 0 1 5 3 6 20 4 4 5 5 5 5 5 5 5
39 5 6 100 61 5 6 91 5 5 5 5 5 5 5 5 1 0 0 5 5 5 5 5 5 5 5 2 9 74 29 33 98 5 20 5 5 5 5 5 5 5 6
5 5 5 43 93 20 31 100 100 5 5 5 5 5 5 5 5 5 5 5 5 5 5 35 30 5 5 5 18 97 100 80 100 30 6 5 5 5 19 48 98 80 94
5 7 5 6 70 61 41 100 100 99 14 5 5 5 5 5 5 5 5 5 5 5 5 5 5 5 5 5 7 65 20 100 95 99 96 5 76 40 5 76 100 100 100
5 5 5 5 5 16 98 99 100 100 100 80 5 6 5 5 5 5 5 13 22 30 52 60 88 36 10 5 52 51 22 54 97 100 81 100 100 100 100 100 100 100 100
44 5 64 5 5 5 34 28 33 99 100 98 73 64 18 56 64 32 14 7 6 64 76 71 62 33 10 64 93 96 98 100 99 97 90 86 74 100 100 100 100 100 100
68 18 22 59 5 96 24 33 12 33 98 100 100 100 100 11 72 76 8 5 36 95 81 83 79 58 94 100 100 100 100 80 97 90 100 100 100 90 100 91 100 100 90
5 5 5 90 24 12 78 54 92 71 73 100 100 98 100 100 65 100 100 100 83 41 95 96 96 87 58 100 100 100 100 100 100 100 100 100 92 100 33 89 89 54 96
5 13 12 46 33 53 100 100 96 100 100 92 67 91 98 100 100 100 100 100 100 100 100 100 100 100 100 100 100 100 100 100 100 100 100 100 100 96 100 85 76 29 95
100 100 100 59 92 88 75 92 90 100 99 100 100 94 98 100 100 100 100 100 100 100 100 100 64 80 90 90 100 100 100 100 100 93 100 100 100 100 100 33 5 99 7
100 100 100 100 64 100 68 100 100 100 100 100 100 100 99 100 100 86 99 76 6 39 5 5 7 52 7 71 82 89 100 100 88 100 100 100 86 100 51 5 9 9 22
100 100 100 100 100 100 99 96 100 100 100 100 100 100 100 100 100 100 46 31 5 8 5 5 5 38 18 11 92 100 100 100 100 100 100 100 92 100 10 59 40 76 100
100 100 100 100 100 100 100 100 100 100 100 100 100 100 100 100 100 100 100 90 90 34 23 5 5 57 100 74 100 99 97 37 100 100 28 17 100 100 100 92 70 100 100
82 100 100 100 100 100 100 100 100 100 100 100 100 100 100 100 100 100 100 100 100 100 100 27 13 38 97 80 11 5 5 50 100 52 5 80 100 100 100 100 73 100 100
99 100 100 100 100 100 100 100 100 100 100 100 100 100 100 100 100 100 100 100 100 100 100 100 95 100 99 94 50 13 5 5 24 99 32 98 100 100 100 100 42 70 100
96 100 100 98 100 100 100 100 100 100 100 100 100 100 100 100 100 100 100 100 100 100 100 100 100 100 100 100 100 92 95 100 100 100 6 86 100 100 100 58 34 100 98
99 100 100 100 100 100 100 100 100 100 100 100 100 100 100 100 100 100 100 100 100 100 100 100 100 100 100 100 100 100 100 100 100 100 98 100 100 94 20 56 28 52 92
100 100 100 100 100 100 100 100 100 100 100 100 100 100 100 100 100 100 100 100 100 100 100 100 100 100 100 100 100 100 100 90 100 100 100 100 99 7 46 12 5 30 100
100 100 100 100 100 100 100 100 100 100 100 100 100 100 100 100 100 100 100 100 100 100 100 100 100 99 100 100 77 55 31 99 100 100 5 100 100 47 19 35 28 48 39
100 100 100 100 100 100 100 100 100 100 100 100 100 100 100 100 100 100 100 100 100 100 100 100 100 100 98 97 93 100 100 100 56 75 78 100 99 5 5 5 5 5 5
100 100 100 100 100 100 100 100 100 100 100 100 100 100 100 100 100 100 100 100 100 100 100 100 100 100 100 97 100 100 100 100 75 70 100 100 99 6 5 5 5 5 5
100 100 100 100 100 100 100 100 100 100 100 100 100 100 100 100 100 100 100 100 100 100 100 100 100 100 100 100 100 100 100 88 100 100 100 100 39 20 11 5 4 5 5
100 100 100 100 100 100 100 100 100 100 100 100 100 100 100 100 100 100 100 100 100 100 100 100 100 100 100 100 100 100 98 85 64 82 100 100 47 28 5 5 5 5 5
100 100 100 100 100 100 100 100 100 100 100 100 100 100 100 100 100 100 100 100 100 96 100 100 100 100 100 100 100 100 100 100 98 96 100 99 59 46 5 5 5 5 5
100 100 100 100 100 100 100 100 100 100 100 100 100 100 100 100 100 100 100 98 91 100 100 100 100 100 100 100 100 100 100 100 60 100 100 100 94 86 5 5 5 5 10
100 100 100 100 100 100 100 100 100 100 100 100 100 100 100 100 100 100 100 100 100 100 100 100 100 100 100 100 100 98 100 100 100 100 98 100 100 100 68 5 5 5 48